STARLINK-4517 (53390 NORAD) Tracking and Keplerian Element Data

This shows tracking and keplerian element data for the satellite.

Feedback or suggestion? Click here.




ElementValue
Catalog53390
NameSTARLINK-4517
Epoch Orbit1613
Epoch Day324.87909045
Epoch Year2022
RAAN132.7379
Inclination53.2178
Eccentricity0.000257
Argument of Perigee47.0261
Mean Anonmoly313.0946
Mean Motion15.08847534
Decay Rate2.111E-05
L11 53390U 22097C 22324.87909045 .00002111 00000+0 15068-3 0 9992
L22 53390 53.2178 132.7379 0002570 47.0261 313.0946 15.08847534 16136



Live tracking and technical data element details for STARLINK-4517 (NORAD 53390). STARLINK-4517 can be tracked NOW for your location showing map with azimuth and elevation plus other details from your city location.







IsCatalogInMostPopularTable: catalog: 53390, numindb: 7
Update: records affected: 1



GetName: 53390 STARLINK-4517

Hit Count: updated at: Thu, 08 Dec 2022 20:50:26 GMT